Location: Champs
(48.8539°N, 2.6040°E)
Time: 06:03:58
(UTC+00:00)

Meteor PRIRODA - Pass Details

Date: 26 October 2021
Orbit: 487 x 508 km, 97.6° (Epoch: 04 December)

Event Time Altitude Azimuth Distance (km) Brightness Sun altitude
Rises 05:29:17 0° 16° (NNE) 2,619 7.4 -10.1°
Reaches altitude 10° 05:31:25 10° 21° (NNE) 1,725 6.5 -9.7°
Maximum altitude 05:35:05 56° 100° (E) 602 4.4 -9.2°
Drops below altitude 10° 05:38:41 10° 180° (S) 1,698 6.4 -8.6°
Sets 05:40:46 0° 185° (S) 2,571 7.3 -8.2°
